Find Starlink 30980

NORAD ID: 58476 Int'l Des: 2023-186 Owner: SPXS Country: US Constellation: starlink operational
LEOCIRCULAR

Live Position

Loading 3D Globe...

About Starlink 30980

Description loading...

Upcoming Passes

Passes for default location (London). Set your location on the main map for personalized predictions.

Altitude History

Loading altitude history...

Two-Line Element Set

1 58476U 23186D 26122.37199395 -.00004973 00000-0 -17121-3 0 9999
2 58476 43.0049 124.1029 0001469 283.9872 76.0816 15.27596024134063
Epoch: May 2, 2026 • Age: 8 hours

Current Status

Altitude 485.4 km
Velocity 7.63 km/s
Sub-Earth Point 34.90°N, 133.77°E
Launch Date Dec 3, 2023
Age 2.4 years
Type internet

Technical Details

Classification Payload
Mass 730.00 kg
Dry Mass 700.00 kg
Total Mass 730.00 kg
Length 0.30 m
Diameter 4.10 m
Span 29.00 m
Shape Box + pan
Manufacturer SPXS
Bus Type Starlink V2M
Phase Status In Orbit
Owner/State SPXS/US

Most Searched